Overview Statistics Trail Chart Weather Telemetry Raw packets
 

This is the latest recevied weather packets stored in our database for station/object WA1TYB-13. If no packets are shown the sender has not sent any weather packets the latest 10 day(s).

<< 102 103 104 105 106 107 108 >>
Time Temp. Humidity Pressure Rain* Wind** Luminosity Snow
1787840358 14.44° C 70% 1021.3 hPa 0 mm - 90 W/m² -
1787840054 13.89° C 73% 1021.3 hPa 0 mm - 79 W/m² -
1787839749 13.33° C 75% 1021.1 hPa 0 mm - 67 W/m² -
1787839443 12.78° C 77% 1021.5 hPa 0 mm - 57 W/m² -
1787839143 12.78° C 78% 1021.7 hPa 0 mm - 62 W/m² -
1787838841 12.22° C 78% 1021.4 hPa 0 mm - 65 W/m² -
1787838536 12.22° C 78% 1021.2 hPa 0 mm - 69 W/m² -
1787838235 12.22° C 77% 1021.2 hPa 0 mm - 49 W/m² -
1787837934 12.22° C 77% 1021.2 hPa 0 mm - 30 W/m² -
1787837634 12.22° C 77% 1021.3 hPa 0 mm - 28 W/m² -
1787837328 12.22° C 77% 1021.5 hPa 0 mm - 26 W/m² -
1787837024 12.22° C 76% 1021.2 hPa 0 mm - 28 W/m² -
1787836724 11.67° C 76% 1021.2 hPa 0 mm - 23 W/m² -
1787836418 12.22° C 76% 1021.5 hPa 0 mm - 21 W/m² -
1787836113 11.67° C 76% 1021.4 hPa 0 mm - 15 W/m² -
1787835810 12.22° C 76% 1021.2 hPa 0 mm - 13 W/m² -
1787835508 11.67° C 75% 1021.5 hPa 0 mm - 9 W/m² -
1787835203 12.22° C 75% 1021.5 hPa 0 mm - 6 W/m² -
1787834898 11.67° C 75% 1021.4 hPa 0 mm - 4 W/m² -
1787834597 11.67° C 75% 1021.3 hPa 0 mm - 2 W/m² -
1787834292 11.67° C 75% 1021.6 hPa 0 mm - 0 W/m² -
1787833989 11.67° C 76% 1021.4 hPa 0 mm - 0 W/m² -
1787833683 11.11° C 76% 1021.4 hPa 0 mm - 0 W/m² -
1787833379 11.11° C 75% 1021.4 hPa 0 mm - 0 W/m² -
1787833074 11.67° C 75% 1021.4 hPa 0 mm - 0 W/m² -

* Rain latest hour (hover to see other rain measurements)
** Current wind speed in m/s (hover to see current wind gust speed)